Time,TemperatureF,DewpointF,PressureIn,WindDirection,WindDirectionDegrees,WindSpeedMPH,WindSpeedGustMPH,Humidity,HourlyPrecipIn,Conditions,Clouds,dailyrainin,SolarRadiationWatts/m^2,SoftwareType,DateUTC
2015-08-28 00:00:00,62.1,56.1,29.96,NW,314,0.0,0.0,80,0.00,,,-99.99,1.0,HOBO +U30 +Weather +,2015-08-28 04:00:00,
2015-08-28 00:15:00,63.1,57.2,29.96,NW,317,0.4,2.5,81,0.00,,,-99.99,1.0,HOBO +U30 +Weather +,2015-08-28 04:15:00,
2015-08-28 00:39:00,62.4,56.2,29.97,NW,314,0.0,3.8,80,0.00,,,-99.99,1.0,HOBO +U30 +Weather +,2015-08-28 04:39:00,
2015-08-28 00:45:00,61.8,56.0,29.97,WNW,295,0.0,1.3,81,0.00,,,-99.99,1.0,HOBO +U30 +Weather +,2015-08-28 04:45:00,
2015-08-28 01:00:00,61.5,56.2,29.97,WNW,298,0.4,2.9,82,0.00,,,-99.99,1.0,HOBO +U30 +Weather +,2015-08-28 05:00:00,
2015-08-28 01:15:00,62.0,57.0,29.97,WNW,303,0.4,3.8,83,0.00,,,-99.99,1.0,HOBO +U30 +Weather +,2015-08-28 05:15:00,
2015-08-28 01:39:00,60.8,55.8,29.97,NW,317,0.0,0.0,83,0.00,,,-99.99,1.0,HOBO +U30 +Weather +,2015-08-28 05:39:00,
2015-08-28 01:45:00,61.3,56.7,29.97,NW,313,0.9,2.0,84,0.00,,,-99.99,1.0,HOBO +U30 +Weather +,2015-08-28 05:45:00,
2015-08-28 02:00:00,61.4,56.7,29.97,NW,314,0.4,2.9,84,0.00,,,-99.99,1.0,HOBO +U30 +Weather +,2015-08-28 06:00:00,
2015-08-28 02:15:00,60.9,56.3,29.97,NW,317,0.4,2.0,84,0.00,,,-99.99,1.0,HOBO +U30 +Weather +,2015-08-28 06:15:00,
2015-08-28 02:39:00,60.0,55.7,29.97,NW,313,0.0,1.6,85,0.00,,,-99.99,1.0,HOBO +U30 +Weather +,2015-08-28 06:39:00,
2015-08-28 02:45:00,59.2,55.5,29.97,NW,313,0.0,0.0,87,0.00,,,-99.99,1.0,HOBO +U30 +Weather +,2015-08-28 06:45:00,
2015-08-28 03:00:00,58.4,55.0,29.97,NW,313,0.0,0.0,88,0.00,,,-99.99,1.0,HOBO +U30 +Weather +,2015-08-28 07:00:00,
2015-08-28 03:15:00,58.7,55.8,29.97,NW,313,0.0,0.0,90,0.00,,,-99.99,1.0,HOBO +U30 +Weather +,2015-08-28 07:15:00,
2015-08-28 03:39:00,58.0,55.1,29.97,NW,316,0.0,0.0,90,0.00,,,-99.99,1.0,HOBO +U30 +Weather +,2015-08-28 07:39:00,
2015-08-28 03:45:00,58.2,55.6,29.97,NW,316,0.0,0.0,90,0.00,,,-99.99,1.0,HOBO +U30 +Weather +,2015-08-28 07:45:00,
2015-08-28 04:00:00,58.2,55.6,29.97,NW,316,0.0,0.0,90,0.00,,,-99.99,1.0,HOBO +U30 +Weather +,2015-08-28 08:00:00,
2015-08-28 04:15:00,58.6,55.9,29.97,NW,316,0.0,0.0,90,0.00,,,-99.99,1.0,HOBO +U30 +Weather +,2015-08-28 08:15:00,
2015-08-28 04:39:00,59.5,56.5,29.97,NW,316,0.4,2.9,89,0.00,,,-99.99,1.0,HOBO +U30 +Weather +,2015-08-28 08:39:00,
2015-08-28 04:45:00,59.5,56.0,29.97,WNW,289,0.9,2.5,88,0.00,,,-99.99,1.0,HOBO +U30 +Weather +,2015-08-28 08:45:00,
2015-08-28 05:00:00,58.3,54.8,29.98,West,274,0.0,1.6,87,0.00,,,-99.99,1.0,HOBO +U30 +Weather +,2015-08-28 09:00:00,
2015-08-28 05:15:00,58.3,55.1,29.98,West,274,0.0,0.0,88,0.00,,,-99.99,1.0,HOBO +U30 +Weather +,2015-08-28 09:15:00,
2015-08-28 05:39:00,57.5,54.6,29.98,West,274,0.0,0.0,90,0.00,,,-99.99,1.0,HOBO +U30 +Weather +,2015-08-28 09:39:00,
2015-08-28 05:45:00,57.0,54.5,29.98,West,274,0.0,0.0,91,0.00,,,-99.99,1.0,HOBO +U30 +Weather +,2015-08-28 09:45:00,
2015-08-28 06:00:00,57.0,54.8,29.98,West,274,0.0,0.0,92,0.00,,,-99.99,4.0,HOBO +U30 +Weather +,2015-08-28 10:00:00,
2015-08-28 06:15:00,56.8,54.6,29.98,West,274,0.0,0.0,92,0.00,,,-99.99,11.0,HOBO +U30 +Weather +,2015-08-28 10:15:00,
2015-08-28 06:39:00,58.3,56.3,29.99,West,274,0.0,0.0,92,0.00,,,-99.99,44.0,HOBO +U30 +Weather +,2015-08-28 10:39:00,
2015-08-28 06:45:00,59.9,57.4,30.00,West,274,0.0,0.0,91,0.00,,,-99.99,89.0,HOBO +U30 +Weather +,2015-08-28 10:45:00,
2015-08-28 07:00:00,61.5,58.2,30.01,West,275,1.3,3.8,88,0.00,,,-99.99,24.0,HOBO +U30 +Weather +,2015-08-28 11:00:00,
2015-08-28 07:15:00,63.7,59.3,30.01,West,275,0.4,2.5,85,0.00,,,-99.99,27.0,HOBO +U30 +Weather +,2015-08-28 11:15:00,
2015-08-28 07:39:00,64.7,58.8,30.01,NW,309,1.3,4.3,81,0.00,,,-99.99,31.0,HOBO +U30 +Weather +,2015-08-28 11:39:00,
2015-08-28 07:45:00,65.1,58.0,30.02,NW,321,2.0,5.8,77,0.00,,,-99.99,257.0,HOBO +U30 +Weather +,2015-08-28 11:45:00,
2015-08-28 08:00:00,66.1,58.3,30.02,NNW,340,2.5,6.7,75,0.00,,,-99.99,301.0,HOBO +U30 +Weather +,2015-08-28 12:00:00,
2015-08-28 08:15:00,67.6,59.0,30.02,NW,309,2.0,7.8,74,0.00,,,-99.99,336.0,HOBO +U30 +Weather +,2015-08-28 12:15:00,
2015-08-28 08:39:00,67.3,58.3,30.02,NNW,343,3.4,7.2,72,0.00,,,-99.99,386.0,HOBO +U30 +Weather +,2015-08-28 12:39:00,
2015-08-28 08:45:00,67.3,58.0,30.03,NNW,348,4.5,10.1,71,0.00,,,-99.99,48.0,HOBO +U30 +Weather +,2015-08-28 12:45:00,
2015-08-28 09:00:00,69.5,59.4,30.03,NW,324,2.9,7.2,70,0.00,,,-99.99,467.0,HOBO +U30 +Weather +,2015-08-28 13:00:00,
2015-08-28 09:15:00,69.3,58.3,30.02,NNW,327,2.5,5.8,67,0.00,,,-99.99,507.0,HOBO +U30 +Weather +,2015-08-28 13:15:00,
2015-08-28 09:39:00,71.2,59.7,30.01,NW,319,2.0,6.3,67,0.00,,,-99.99,542.0,HOBO +U30 +Weather +,2015-08-28 13:39:00,